Location: Marcé
(47.5801°N, 0.3280°W)
Time: 18:47:40
(UTC+01:00)

Courier 1B - Pass Details

Date: 09 December 2021
Orbit: 962 x 1209 km, 28.3° (Epoch: 21 January)

Event Time Altitude Azimuth Distance (km) Brightness Sun altitude
Rises 17:37:24 0° 239° (WSW) 4,086 13.9 -4.8°
Reaches altitude 10° 17:41:28 10° 220° (SW) 3,095 11.5 -5.4°
Maximum altitude 17:45:56 17° 184° (S) 2,586 10.2 -6.1°
Drops below altitude 10° 17:50:18 10° 148° (SSE) 3,004 10.0 -6.7°
Sets 17:54:10 0° 129° (SE) 3,913 10.4 -7.3°
